Flag for United Kingdom Weather past 2 weeks in Lerwick (Shetland Islands), Scotland, United Kingdom

Now
35 °F

Passing clouds.


Feels Like: 23 °F
Forecast: 32 / 35 °F
Wind: 21 mph from Northwest

Location: Lerwick

Current Time: Feb 2, 2015 at 1:17:52 AM

Latest Report: Feb 2, 2015 at 12:00 AM


Visibility: 13 mi

Pressure: 29.47 "Hg

Humidity: 83%

Dew point: 30 °F

Location of Lerwick (Shetland Islands)Location

Historic Weather in Lerwick (Shetland Islands) — Graph

°F

Lerwick (Shetland Islands) temperature yesterday

Maximum temperature yesterday: 37 °F (at 12:00 AM)
Minimum temperature yesterday: 31 °F (at 10:00 AM)
Average temperature yesterday: 34 °F

Past Weeks' High & Low Weather Summary

 TemperatureHumidityPressure
High47 °F (Jan 25, 1:00 PM)99% (Jan 19, 4:00 AM)30.09 "Hg (Jan 19, 4:00 AM)
Low31 °F (Feb 1, 10:00 AM)59% (Feb 1, 8:00 AM)28.38 "Hg (Jan 29, 6:00 PM)
Average39 °F84%29.49 "Hg
* Reported Jan 17 11:00 PM — Feb 1 11:00 PM, Lerwick (Shetland Islands), Weather by CustomWeather, © 2014

Note: Actual official high and low records may vary slightly from our data, if they occured in-between our weather recording intervals... More about our weather records

Advertising

Lerwick (Shetland Islands) weather history for previous 24 hours

 ConditionsComfort  
Time TempWeatherWind HumidityBarometerVisibility
11:00 PM
Feb 1
35 °FSnow flurries. Overcast.18 mph86%29.47 "Hg12 mi
10:00 PM32 °FPassing clouds.23 mph89%29.50 "Hg8 mi
9:00 PM33 °FPassing clouds.25 mph86%29.47 "Hg11 mi
8:00 PM32 °FPassing clouds.21 mph93%29.50 "Hg12 mi
7:00 PM34 °FPassing clouds.21 mph76%29.47 "Hg12 mi
6:00 PM33 °FSnow flurries. Overcast.22 mph80%29.47 "Hg12 mi
5:00 PM32 °FPassing clouds.24 mph87%29.47 "Hg6 mi
4:00 PM34 °FPassing clouds.21 mph75%29.47 "Hg12 mi
3:00 PM35 °FRain showers. Cloudy.21 mph87%29.44 "Hg8 mi
2:00 PM34 °FScattered clouds.23 mph94%29.44 "Hg12 mi
1:00 PM32 °FLight snow. Low clouds.25 mph98%29.47 "Hg1 mi
12:00 PM32 °FLight snow. Low clouds.18 mph99%29.44 "Hg1 mi
11:00 AM31 °FLight snow. Low clouds.21 mph99%29.47 "Hg1 mi
10:00 AM31 °FSnow flurries. Low clouds.22 mph90%29.47 "Hg1 mi
9:00 AM34 °FScattered clouds.22 mph76%29.44 "Hg12 mi
8:00 AM34 °FPassing clouds.23 mph59%29.44 "Hg19 mi
7:00 AM34 °FPassing clouds.23 mph66%29.44 "Hg16 mi
6:00 AM35 °FPassing clouds.24 mph70%29.44 "Hg16 mi
5:00 AM34 °FLight mixture of precip. Passing clouds.26 mph87%29.44 "Hg6 mi
4:00 AM36 °FPassing clouds.28 mph74%29.41 "Hg16 mi
3:00 AM36 °FPassing clouds.30 mph75%29.38 "Hg12 mi
2:00 AM36 °FPassing clouds.29 mph81%29.38 "Hg12 mi
1:00 AM37 °FLight mixture of precip. Overcast.35 mph86%29.35 "Hg6 mi
Weather by CustomWeather, © 2014

See weather overviewHow to use our weather pages